Retour au catalogue

STARLINK-30548

ActifCommunicationsVLEO
NORAD 58046·PAYLOAD·🇺🇸 United States

Lancé Oct 9, 2023 depuis Vandenberg Space Force Base

Loading…

Prochains Passages (prochaines 24 heures)

TLE

FraisSource: CelesTrak SupGP

Époque: Sep 14, 2026, 21:32 UTC

1 58046C 23156U   26257.89770833  .00000462  00000+0  13632-4 0  2574
2 58046  53.1603   5.5890 0001391  70.2306 311.6350 15.34397371    15

Suivez STARLINK-30548 en temps réel avec AllMySat

Download on the App Store